CAPE
0 2 0 2 3 7 11 5 5 5 95 88 33 8 0 0 0 0 0 0 82 779 738 787 433 75 25 41 42 135 109 85 82 51 11 5 0 0 1 4 10 11 21
0 0 0 4 4 7 5 9 8 5 93 136 64 22 0 0 0 0 0 0 35 418 598 821 702 274 73 24 50 86 104 105 89 58 34 9 2 0 2 3 4 9 18
0 0 0 1 8 2 6 10 6 6 111 64 69 6 1 0 0 0 0 0 0 191 447 894 653 568 371 26 132 78 80 147 122 75 33 20 4 2 1 6 2 11 12
0 0 0 1 1 5 8 9 10 5 16 93 82 40 0 0 0 0 0 0 0 19 315 633 749 597 435 340 234 105 83 263 102 81 78 21 3 3 4 7 9 7 8
0 0 0 1 1 5 5 8 7 9 10 8 185 65 0 0 0 0 0 0 0 5 23 309 316 302 70 305 506 139 154 96 108 86 64 17 4 5 11 13 12 13 8
0 0 0 0 1 8 5 6 5 6 6 3 77 129 3 0 0 0 0 0 0 1 0 33 120 86 18 165 555 540 240 86 76 72 25 9 4 4 12 17 9 13 14
0 0 0 0 2 8 6 6 11 8 3 6 37 30 2 1 0 0 0 0 0 0 2 12 82 35 13 43 312 375 475 135 82 31 21 7 5 8 13 11 12 9 14
0 0 0 0 0 3 4 6 9 10 3 5 5 69 20 12 4 0 0 0 0 0 6 21 37 29 22 23 52 165 196 419 81 53 37 12 7 9 11 14 15 13 8
0 0 0 0 5 2 6 6 10 10 12 2 8 8 11 22 0 0 2 0 0 2 5 22 38 50 35 31 30 16 35 118 334 135 65 22 14 13 11 13 19 10 13
0 0 0 0 1 1 6 1 7 13 14 8 7 1 1 5 10 5 0 0 0 0 1 16 47 58 48 50 40 41 0 27 213 218 132 36 15 16 13 15 17 18 16
0 0 0 0 0 1 8 1 3 6 15 15 8 16 5 3 1 0 3 0 4 0 1 0 47 79 55 61 43 31 0 15 308 386 226 113 68 23 17 7 16 18 19
0 0 0 0 0 2 1 3 3 10 11 12 13 8 13 15 4 8 5 2 14 4 1 0 0 49 53 48 23 14 0 0 160 338 378 194 109 40 17 9 10 10 9
0 0 0 0 0 0 0 7 2 1 5 12 14 12 14 13 17 12 6 8 5 0 0 0 0 0 9 19 1 0 0 0 38 241 309 306 207 81 50 15 46 22 16
0 0 0 0 0 0 0 5 4 1 2 10 10 13 16 14 15 17 7 6 14 2 0 0 0 0 0 0 0 0 0 0 0 18 310 179 110 31 12 54 96 91 79
0 0 0 0 0 0 0 3 6 2 2 1 11 10 7 8 11 19 11 2 4 19 0 0 0 0 0 0 0 0 0 0 0 0 0 5 31 22 1 7 49 62 51
0 0 0 0 0 0 0 1 8 5 9 8 3 10 8 5 5 14 15 14 6 6 0 0 0 0 0 0 0 0 0 0 0 0 0 0 12 2 0 1 10 15 20
0 0 0 0 0 0 0 0 2 4 4 11 2 3 8 6 7 10 16 19 8 4 4 0 0 0 0 0 0 0 0 0 0 0 0 0 0 0 0 0 0 0 0
0 0 0 0 0 0 0 9 1 2 9 13 1 2 3 5 7 5 8 10 11 2 5 3 0 0 0 0 0 0 0 0 0 0 0 0 0 0 0 0 0 0 0
0 0 0 0 0 0 0 11 4 1 3 9 12 2 2 4 9 12 19 8 12 5 0 12 4 0 0 0 0 0 0 0 0 0 0 0 0 0 0 0 0 0 0
0 0 0 0 0 0 1 2 1 0 0 7 11 10 2 4 8 10 11 9 7 11 1 3 20 0 0 0 0 0 0 0 0 0 0 0 0 0 0 0 0 0 0
0 0 0 0 0 0 5 0 0 1 0 0 1 15 22 8 7 13 17 14 11 14 9 5 8 0 0 0 0 0 0 0 0 0 0 0 0 0 0 0 0 0 0
0 0 0 0 0 3 13 23 12 12 14 11 6 8 21 16 5 8 11 21 15 12 9 7 3 0 0 0 0 0 0 0 0 0 0 0 0 0 0 0 0 0 0
0 0 0 0 0 0 13 18 17 9 16 14 11 8 20 23 5 3 4 9 12 17 15 17 10 4 0 0 0 0 0 0 0 0 0 0 0 0 0 0 0 0 0
0 0 0 0 0 1 16 18 17 9 19 14 9 2 7 14 9 2 5 8 7 10 7 18 12 1 1 0 0 0 0 0 0 0 0 0 0 0 0 0 0 0 0
0 0 0 0 0 0 7 18 14 15 9 5 0 0 2 15 9 7 3 10 9 8 12 5 6 2 1 0 1 0 0 0 0 0 0 0 0 0 0 0 0 0 0
0 0 0 0 1 0 6 14 7 7 8 1 0 0 8 15 21 25 8 6 9 0 7 7 4 9 0 0 0 0 0 0 0 1 0 0 1 0 1 0 0 0 0
CIN
-0 -1 -0 -0 -0 -0 -0 -0 -0 -0 -8 -39 -62 -99 -0 -0 -0 -0 -0 -0 -93 -16 -6 -0 -7 -95 -7 -3 -0 -133 -132 -0 -0 -5 -9 -18 -0 -0 -0 -0 -0 -0 -0
-0 -0 -0 -0 -0 -0 -0 -0 -0 -0 -13 -13 -41 -69 -0 -0 -0 -0 -0 -0 -68 -45 -21 -0 -0 -26 -91 -26 -12 -45 -132 -113 -0 -3 -13 -22 -0 -0 -0 -0 -0 -0 -0
-0 -0 -0 -1 -0 -0 -0 -0 -0 -0 -6 -6 -24 -99 -53 -0 -0 -0 -0 -0 -0 -48 -40 -7 -0 -0 -10 -0 -58 -50 -0 -113 -103 -0 -10 -16 -0 -0 -0 -0 -0 -0 -0
-0 -0 -0 -0 -0 -0 -0 -0 -0 -0 -0 -0 -7 -24 -0 -0 -0 -0 -0 -0 -0 -90 -46 -17 -0 -1 -0 -17 -31 -60 -0 -40 -112 -1 -1 -14 -0 -0 -0 -0 -0 -0 -0
-0 -0 -0 -1 -1 -0 -0 -0 -0 -0 -0 -0 -0 -26 -29 -0 -0 -0 -0 -0 -0 -143 -115 -33 -21 -2 -22 -16 -1 -32 -42 -47 -124 -0 -4 -12 -0 -0 -0 -0 -0 -0 -0
-0 -0 -0 -0 -1 -0 -0 -0 -0 -0 -0 -0 -33 -2 -43 -0 -0 -0 -0 -0 -0 -163 -75 -95 -49 -21 -20 -40 -0 -0 -16 -71 -0 -0 -14 -0 -0 -0 -0 -0 -0 -0 -0
-0 -0 -0 -0 -0 -0 -0 -0 -0 -0 -0 -0 -4 -52 -0 -21 -0 -0 -0 -0 -0 -0 -168 -142 -78 -57 -11 -24 -3 -0 -0 -68 -0 -5 -12 -0 -0 -0 -0 -0 -0 -0 -0
-0 -0 -0 -0 -0 -0 -0 -0 -0 -0 -0 -0 -0 -1 -5 -0 -4 -0 -0 -0 -0 -0 -137 -117 -64 -38 -25 -9 -17 -30 -17 -7 -76 -0 -7 -25 -0 -0 -0 -0 -0 -0 -0
-0 -0 -0 -0 -0 -0 -0 -0 -0 -0 -0 -0 -0 -0 -10 -4 -0 -26 -81 -0 -0 -132 -117 -96 -58 -47 -37 -29 -11 -23 -21 -51 -7 -8 -5 -11 -0 -0 -0 -0 -0 -0 -0
-0 -0 -0 -0 -1 -0 -0 -0 -0 -0 -0 -0 -0 -0 -0 -0 -14 -3 -0 -7 -0 -27 -72 -99 -60 -44 -42 -43 -32 -21 -10 -24 -16 -25 -0 -2 -0 -0 -0 -0 -0 -0 -0
-0 -0 -0 -0 -0 -1 -0 -0 -0 -0 -0 -0 -0 -0 -0 -0 -0 -3 -7 -0 -48 -0 -140 -21 -63 -65 -25 -32 -45 -52 -2 -62 -1 -0 -34 -0 -0 -0 -0 -0 -0 -0 -0
-0 -0 -0 -0 -0 -1 -0 -1 -0 -0 -0 -0 -0 -0 -0 -0 -0 -1 -12 -27 -20 -24 -39 -17 -0 -69 -43 -20 -63 -72 -0 -0 -20 -1 -5 -42 -26 -0 -0 -0 -0 -0 -0
-0 -0 -0 -0 -0 -0 -0 -0 -0 -0 -0 -0 -0 -0 -0 -0 -0 -0 -0 -9 -27 -0 -10 -0 -0 -0 -32 -21 -25 -0 -0 -0 -43 -11 -3 -6 -39 -0 -0 -2 -2 -6 -0
-0 -0 -0 -0 -0 -0 -0 -0 -0 -0 -0 -0 -0 -0 -0 -0 -0 -0 -0 -0 -4 -29 -0 -0 -0 -0 -0 -0 -0 -0 -0 -0 -0 -47 -1 -18 -64 -2 -7 -2 -0 -0 -0
-0 -0 -0 -0 -0 -0 -0 -0 -0 -0 -0 -0 -0 -0 -0 -0 -0 -0 -0 -0 -1 -3 -0 -0 -0 -0 -0 -0 -0 -0 -0 -0 -0 -0 -0 -14 -16 -20 -19 -15 -4 -4 -5
-0 -0 -0 -0 -0 -0 -0 -0 -0 -0 -0 -0 -0 -0 -0 -0 -0 -0 -0 -0 -0 -11 -0 -0 -0 -0 -0 -0 -0 -0 -0 -0 -0 -0 -0 -1 -32 -43 -6 -5 -30 -15 -9
-0 -0 -0 -0 -0 -0 -0 -0 -1 -0 -0 -0 -0 -0 -0 -0 -0 -0 -0 -0 -0 -0 -13 -0 -0 -0 -0 -0 -0 -0 -0 -0 -0 -0 -0 -0 -0 -0 -0 -0 -0 -5 -8
-0 -0 -0 -0 -0 -0 -0 -0 -1 -0 -0 -0 -0 -0 -0 -0 -0 -0 -0 -0 -0 -0 -0 -6 -0 -0 -0 -0 -0 -0 -0 -0 -0 -0 -0 -0 -0 -0 -0 -0 -0 -0 -0
-0 -0 -0 -0 -0 -0 -0 -0 -0 -0 -0 -0 -0 -0 -0 -0 -0 -0 -0 -0 -0 -0 -0 -0 -46 -0 -0 -0 -0 -0 -0 -0 -0 -0 -0 -0 -0 -0 -0 -0 -0 -0 -0
-0 -0 -0 -0 -0 -0 -0 -0 -0 -0 -0 -0 -0 -0 -0 -0 -0 -0 -0 -0 -0 -0 -0 -0 -4 -0 -0 -0 -0 -0 -0 -0 -0 -0 -0 -0 -0 -0 -0 -0 -0 -0 -0
-0 -0 -0 -0 -0 -0 -0 -1 -0 -0 -0 -0 -0 -0 -0 -0 -0 -0 -0 -0 -0 -0 -0 -0 -0 -0 -0 -0 -0 -0 -0 -0 -0 -0 -0 -0 -0 -0 -0 -0 -0 -0 -0
-0 -0 -0 -0 -0 -0 -0 -0 -0 -0 -0 -0 -0 -0 -0 -0 -0 -0 -0 -0 -0 -0 -0 -0 -0 -0 -0 -0 -0 -0 -0 -0 -0 -0 -0 -0 -0 -0 -0 -0 -0 -0 -0
-0 -0 -0 -0 -0 -0 -0 -0 -0 -0 -0 -0 -0 -0 -0 -0 -0 -0 -0 -0 -0 -0 -0 -0 -0 -0 -0 -0 -0 -0 -0 -0 -0 -0 -0 -0 -0 -0 -0 -0 -0 -0 -0
-0 -0 -0 -0 -0 -0 -0 -0 -0 -0 -0 -0 -0 -0 -0 -0 -0 -0 -0 -0 -0 -0 -0 -0 -0 -0 -0 -0 -0 -0 -0 -0 -0 -0 -0 -0 -0 -0 -0 -0 -0 -0 -0
-0 -0 -0 -0 -0 -0 -0 -0 -0 -0 -0 -0 -0 -0 -1 -0 -0 -0 -0 -0 -0 -0 -0 -0 -0 -1 -3 -0 -0 -0 -0 -0 -0 -0 -0 -0 -0 -0 -0 -0 -0 -0 -0
-0 -0 -0 -0 -0 -1 -0 -0 -0 -0 -0 -0 -0 -0 -0 -0 -0 -0 -0 -0 -0 -0 -0 -0 -0 -1 -2 -0 -0 -0 -0 -0 -0 -0 -0 -0 -0 -0 -0 -0 -0 -0 -0
Wind_Speed
11 10 10 9 9 9 9 10 10 11 10 11 9 10 9 9 6 4 3 11 15 16 22 26 26 25 24 21 21 19 19 22 22 21 20 18 19 19 18 17 16 15 14
11 11 11 10 10 10 10 10 11 11 12 11 11 11 10 8 8 6 5 6 13 14 19 23 27 26 24 23 22 23 22 23 23 22 21 20 19 19 18 17 16 16 15
12 13 10 10 10 11 14 10 11 11 11 9 11 9 10 9 8 8 7 6 8 12 16 24 26 25 25 25 25 24 24 23 22 21 21 20 19 19 19 18 17 17 15
13 12 10 9 11 10 10 9 10 12 14 11 5 7 8 9 10 10 9 8 7 6 9 19 24 25 25 25 26 26 25 23 23 22 20 20 19 19 19 18 18 16 16
13 11 10 10 12 9 10 10 10 10 12 8 9 9 8 10 9 8 11 11 9 7 6 13 20 19 24 25 26 28 28 25 20 21 20 20 20 19 19 18 18 17 16
14 11 9 11 11 9 9 10 13 10 11 9 10 11 8 7 7 8 11 10 10 10 7 7 11 12 17 23 26 28 28 26 23 22 22 21 20 19 19 19 18 18 17
13 12 8 10 10 10 11 11 10 13 11 11 8 7 6 7 4 8 9 10 11 11 9 8 7 8 12 23 24 26 26 27 27 25 23 22 21 20 20 18 19 18 17
12 12 10 10 12 10 11 10 11 9 6 7 6 5 5 7 5 6 7 10 14 10 9 9 10 12 12 12 14 23 25 26 28 27 25 24 23 21 20 20 19 19 18
12 11 11 9 11 9 9 10 11 12 9 9 10 7 3 6 6 5 8 9 12 9 9 11 12 13 13 13 13 15 21 25 27 28 26 25 24 23 21 21 21 19 19
11 11 12 10 9 9 10 9 9 10 9 10 11 5 9 6 8 6 5 8 10 13 11 7 10 13 15 13 16 17 19 22 25 26 26 25 24 23 22 22 21 21 19
9 11 11 11 9 8 10 10 11 11 9 9 7 9 10 10 5 3 10 9 7 9 9 9 10 10 12 14 11 15 20 23 27 27 28 28 26 24 24 23 22 22 21
7 9 11 10 10 9 10 10 10 11 10 10 8 9 8 6 5 5 6 15 14 9 8 8 9 10 11 11 13 17 19 23 24 26 27 28 28 25 25 24 23 21 21
7 9 10 10 9 10 10 11 11 11 10 11 10 7 8 8 8 9 8 7 8 3 5 6 7 9 9 11 12 15 18 20 24 25 28 27 25 25 24 24 24 22 22
8 10 10 10 11 11 11 11 9 10 11 10 13 10 8 8 7 9 4 8 7 6 4 5 8 9 10 11 13 18 14 21 19 21 23 24 22 23 24 22 24 23 22
10 10 10 12 11 11 11 12 9 11 11 12 11 11 10 9 8 9 8 8 10 11 12 6 5 11 10 10 13 14 15 19 21 21 20 18 14 21 22 21 21 22 21
13 12 10 11 12 11 11 11 10 11 10 10 10 11 10 9 9 9 7 11 13 12 11 8 8 8 14 10 12 14 15 13 20 20 18 17 15 20 21 20 19 18 19
13 13 11 11 12 12 11 11 11 12 12 11 12 13 12 12 9 8 9 9 9 7 11 7 9 5 16 14 10 12 11 11 10 19 20 19 17 19 21 20 19 18 17
13 13 12 12 12 12 11 13 12 11 12 12 13 14 13 10 12 10 9 12 9 8 8 12 9 5 12 16 15 16 11 11 10 14 18 18 18 18 20 19 18 17 17
14 13 12 12 12 12 12 13 12 12 12 12 12 14 14 14 12 9 9 10 9 8 7 11 10 9 4 12 11 11 11 11 9 12 20 20 19 18 19 19 19 18 17
13 13 13 12 12 12 12 12 14 13 12 12 13 13 14 14 13 12 10 10 12 9 8 13 12 12 12 11 12 13 9 7 9 4 10 13 18 20 19 17 17 17 16
13 13 13 12 12 11 10 12 14 13 13 13 13 14 13 16 21 18 11 11 11 9 8 10 14 10 10 8 15 10 11 10 8 7 8 7 8 8 11 16 14 17 16
12 12 12 12 13 10 19 23 19 12 13 13 13 13 13 19 19 24 24 24 18 12 11 9 12 11 14 12 11 11 12 8 9 6 10 9 8 10 9 9 15 15 16
12 12 12 11 12 13 21 22 22 12 12 13 13 13 12 10 18 14 19 21 21 23 21 14 14 12 5 13 14 14 14 13 11 6 12 9 8 9 7 6 14 16 16
11 11 11 11 11 11 21 21 21 12 11 13 14 14 15 14 15 17 15 14 14 13 14 12 18 14 11 9 16 18 17 13 4 3 12 9 4 9 6 5 14 17 17
9 10 10 11 11 12 20 21 18 11 12 14 14 15 14 16 20 24 16 15 16 15 15 22 23 19 19 13 17 12 13 12 8 4 8 4 4 4 2 4 5 16 15
10 7 10 10 15 13 19 22 17 8 10 10 13 14 24 21 24 25 17 14 15 16 13 13 13 18 19 18 19 18 15 15 8 3 6 6 3 5 2 2 2 4 5
Wind_Direction
341 342 339 334 334 328 330 323 306 313 232 210 212 208 206 212 206 206 214 221 218 208 195 191 184 182 182 183 184 178 170 166 161 160 159 158 157 154 155 153 151 143 140
339 343 335 334 332 336 325 313 314 301 254 214 205 209 214 213 221 198 206 214 218 189 192 202 186 182 183 185 185 177 176 168 164 166 165 166 164 161 159 158 155 153 150
342 339 332 332 335 328 321 319 316 307 244 203 212 208 211 212 219 199 193 204 212 201 192 193 199 189 184 186 185 177 179 175 170 170 170 170 167 167 166 163 162 155 155
345 338 332 328 332 326 322 323 326 319 303 210 200 226 220 220 216 199 190 192 200 206 195 195 196 185 188 190 182 180 183 181 175 175 173 172 171 172 171 169 167 165 168
339 341 329 335 330 326 329 328 320 317 304 294 216 204 217 221 210 196 190 186 189 199 190 197 189 199 191 194 186 184 184 185 182 172 174 176 176 176 176 175 173 171 172
333 338 329 333 331 327 334 329 325 316 299 287 239 211 201 221 212 195 192 185 188 200 183 188 190 196 195 200 188 186 184 184 183 178 181 180 181 181 181 181 181 178 174
327 333 336 330 329 329 331 326 323 322 318 333 271 224 187 218 246 208 189 186 189 198 185 190 183 184 195 206 195 194 189 186 183 188 184 184 185 184 185 185 184 185 179
324 323 331 328 325 333 328 329 332 333 305 343 298 212 185 196 199 226 206 186 192 186 192 190 192 184 192 198 204 196 192 191 187 189 190 187 186 185 187 187 187 190 188
320 322 322 322 322 326 320 323 329 330 316 317 320 291 175 201 159 171 201 207 187 189 195 188 190 188 190 191 202 196 191 193 190 191 193 192 189 189 190 189 190 193 191
313 318 315 317 318 316 311 326 326 315 313 309 323 339 324 295 191 180 183 194 212 192 188 193 188 192 191 190 196 192 190 188 194 197 195 195 195 192 191 193 193 191 194
308 311 311 312 312 310 307 320 314 309 305 295 313 305 326 313 265 177 179 186 194 214 189 185 188 192 197 189 192 191 183 190 195 198 198 194 196 196 193 195 195 195 194
301 305 307 306 303 303 314 306 305 300 305 300 295 306 290 305 334 323 226 187 187 194 195 193 186 191 192 195 193 189 184 193 201 201 206 200 195 196 197 197 197 197 199
296 298 300 301 297 303 300 300 303 302 300 294 296 297 291 279 292 290 286 184 176 167 190 201 193 188 188 196 194 185 185 197 201 203 208 209 202 193 198 198 196 198 198
288 286 288 289 295 293 296 298 296 296 290 296 295 291 287 289 292 294 291 273 170 179 187 176 190 196 191 190 195 186 192 195 198 206 206 216 206 196 192 196 198 197 199
281 283 287 286 286 283 289 293 290 292 293 293 290 299 296 293 297 286 296 290 236 190 203 195 161 194 197 193 199 194 207 202 198 206 204 212 208 191 190 198 197 199 198
282 281 276 275 283 282 284 284 287 287 291 294 287 292 304 300 284 296 297 275 305 200 208 183 202 177 190 196 189 188 198 187 197 199 198 202 194 187 194 191 194 195 198
279 279 276 274 275 280 280 277 277 283 274 282 287 286 290 299 301 287 281 286 275 289 203 190 200 212 195 193 186 191 194 191 194 198 196 197 188 187 190 192 193 195 195
275 274 274 271 271 271 273 278 276 278 282 282 283 282 284 290 290 282 286 287 299 289 285 197 179 176 198 195 191 189 190 196 194 199 196 192 191 187 191 193 194 195 198
271 271 270 269 266 265 267 270 272 272 272 274 275 277 281 284 286 288 290 324 273 297 303 274 185 187 186 186 184 194 189 195 196 186 197 196 191 186 186 188 190 195 200
268 267 265 265 263 262 263 265 270 271 266 267 269 269 274 276 282 290 293 288 296 313 311 313 203 191 192 183 176 182 183 189 193 173 200 198 195 195 188 187 194 199 195
262 262 264 263 261 259 260 258 256 260 263 266 265 263 260 266 272 274 277 278 280 283 272 277 244 176 175 167 186 181 184 184 201 192 191 196 190 194 200 196 205 197 196
266 259 259 259 262 259 266 269 269 262 264 265 269 267 262 265 269 271 267 264 263 263 271 278 286 207 184 185 183 183 183 176 189 182 188 201 183 198 198 198 197 187 195
267 260 258 256 255 256 267 271 269 265 262 262 263 264 267 262 270 270 271 272 273 262 260 256 267 268 236 178 178 181 190 196 197 167 188 198 178 202 201 198 187 187 194
262 258 258 254 251 257 269 272 272 266 260 260 260 260 261 261 261 263 264 265 264 262 251 253 246 254 260 283 196 188 190 184 81 132 191 202 169 202 186 191 186 189 192
263 253 253 257 254 260 267 276 272 262 253 253 256 255 253 254 257 260 257 258 261 255 252 245 258 245 249 274 247 182 184 167 175 169 189 120 165 134 174 182 182 192 190
269 262 265 257 258 270 271 278 277 261 256 257 258 254 255 256 255 254 252 251 253 260 262 263 255 246 242 254 250 197 172 179 165 138 184 132 137 138 157 305 123 152 155